This is the latest recevied weather packets stored in our database for station/object K4GSL. If no packets are shown the sender has not sent any weather packets the latest 10 day(s).
| Time | Temp. | Humidity | Pressure | Rain* | Wind** | Luminosity | Snow |
|---|---|---|---|---|---|---|---|
| 1777994183 | 12.22° C | 94% | 1020.2 hPa | 0 mm | - | 53 W/m² | - |
| 1777993880 | 12.22° C | 94% | 1020.2 hPa | 0 mm | - | 42 W/m² | - |
| 1777993576 | 12.22° C | 94% | 1020.2 hPa | 0 mm | - | 33 W/m² | - |
| 1777993273 | 11.67° C | 94% | 1020.3 hPa | 0 mm | - | 28 W/m² | - |
| 1777992968 | 11.67° C | 94% | 1020.2 hPa | 0 mm | - | 26 W/m² | - |
| 1777992668 | 11.67° C | 95% | 1020.1 hPa | 0 mm | - | 25 W/m² | - |
| 1777992365 | 11.67° C | 95% | 1020.2 hPa | 0 mm | - | 22 W/m² | - |
| 1777992062 | 11.67° C | 95% | 1020.2 hPa | 0 mm | - | 19 W/m² | - |
| 1777991760 | 11.67° C | 95% | 1020 hPa | 0 mm | - | 19 W/m² | - |
| 1777991456 | 11.67° C | 95% | 1020.1 hPa | 0 mm | - | 19 W/m² | - |
| 1777991153 | 11.67° C | 95% | 1020 hPa | 0 mm | - | 17 W/m² | - |
| 1777990851 | 11.67° C | 96% | 1019.8 hPa | 0 mm | - | 15 W/m² | - |
| 1777990548 | 11.67° C | 96% | 1019.9 hPa | 0 mm | - | 16 W/m² | - |
| 1777989942 | 11.67° C | 96% | 1020 hPa | 0 mm | - | 12 W/m² | - |
| 1777989638 | 11.67° C | 96% | 1020 hPa | 0 mm | - | 10 W/m² | - |
| 1777989335 | 11.67° C | 96% | 1019.7 hPa | 0 mm | - | 8 W/m² | - |
| 1777989031 | 11.67° C | 96% | 1019.8 hPa | 0 mm | - | 7 W/m² | - |
| 1777988727 | 11.67° C | 96% | 1019.9 hPa | 0 mm | - | 5 W/m² | - |
| 1777988425 | 11.67° C | 96% | 1019.8 hPa | 0 mm | - | 5 W/m² | - |
| 1777988121 | 11.67° C | 96% | 1019.9 hPa | 0 mm | - | 3 W/m² | - |
| 1777987817 | 11.67° C | 96% | 1019.7 hPa | 0 mm | - | 3 W/m² | - |
| 1777987514 | 11.67° C | 96% | 1019.6 hPa | 0 mm | - | 2 W/m² | - |
| 1777987212 | 11.67° C | 96% | 1019.9 hPa | 0 mm | - | 1 W/m² | - |
| 1777986908 | 11.67° C | 96% | 1019.6 hPa | 0 mm | - | 1 W/m² | - |
| 1777986606 | 11.67° C | 96% | 1019.5 hPa | 0 mm | - | 0 W/m² | - |
* Rain latest hour (hover to see other rain measurements)
** Current wind speed in m/s (hover to see current wind gust speed)